Back to catalog

COSMOS 2251 DEB

AliveLEO
NORAD 35759·DEBRIS·🇷🇺 Russia

Launched Jun 16, 1993 from Plesetsk Cosmodrome

Loading…

Next Passes (next 24 hours)

TLE

FreshSource: Space-Track

Epoch: Sep 13, 2026, 02:25 UTC

1 35759U 93036ARD 26256.10089344  .00000933  00000-0  17048-3 0  9998
2 35759  74.0357  48.0345 0074852  97.4938 263.4743 14.65632672701545

Track COSMOS 2251 DEB in real time with AllMySat

Download on the App Store